Regional Weather Roundup
Issued by NWS Green Bay, WI

Home | Current Version | Previous Version | Graphics & Text | Print | Product List | Glossary Off
Versions: 1 2 3 4 5 6 7 8 9 10 11 12 13 14 15 16 17 18 19 20 21 22 23 24 25 26 27 28 29 30 31 32 33 34 35 36 37 38 39 40 41 42 43 44 45 46 47 48 49 50

000
ASUS43 KGRB 230400
RWRGRB

NORTH-CENTRAL AND NORTHEAST WISCONSIN REGIONAL WEATHER ROUNDUP
NATIONAL WEATHER SERVICE GREEN BAY WI
1100 PM CDT THU JUN 22 2017

WIZ005-009-010>012-018-019-230500-
NORTH CENTRAL WISCONSIN

CITY           SKY/WX    TMP DP  RH WIND       PRES   REMARKS
IRONWOOD       CLEAR     62  55  77 SW6       29.70S
MANITOWISH WTR NOT AVBL
ARBOR VITAE    NOT AVBL
EAGLE RIVER    NOT AVBL
LAND O LAKES   FOG       54  54  99 CALM      29.73S VSB<1/4
RHINELANDER    FOG       57  57 100 W6        29.73S VSB 3/4
PHILLIPS       NOT AVBL
ANTIGO         NOT AVBL
TOMAHAWK       NOT AVBL
MERRILL        PTCLDY    63  63 100 CALM      29.72F
$$

WIZ013-073-230500-
NORTHEAST WISCONSIN

CITY           SKY/WX    TMP DP  RH WIND       PRES   REMARKS
IRON MOUNTAIN  CLOUDY    59  56  89 N3        29.67F
MARINETTE      CLOUDY    65  64  97 CALM      29.68S FOG
$$

WIZ017-030-035>037-045-230500-
CENTRAL WISCONSIN

CITY           SKY/WX    TMP DP  RH WIND       PRES   REMARKS
MEDFORD        NOT AVBL
WAUSAU         MOCLDY    64  62  93 NW5       29.70F
MOSINEE        NOT AVBL
MARSHFIELD     CLOUDY    65  62  90 N5        29.71F
WISC RAPIDS    CLOUDY    66  65  96 NW5       29.72F FOG
STEVENS POINT  NOT AVBL
WAUPACA        CLOUDY    67  67  99 S3        29.72R
SHAWANO        NOT AVBL
CLINTONVILLE   NOT AVBL
WAUTOMA        LGT RAIN  65  64  97 CALM      29.71F
$$

WIZ038-039-048-051-230500-
FOX VALLEY

CITY           SKY/WX    TMP DP  RH WIND       PRES   REMARKS
NWS GREEN BAY  CLOUDY    67  67 100 S6        29.71R
APPLETON       LGT RAIN  64  64 100 W3        29.70S
OSHKOSH        CLOUDY    67  66  97 CALM      29.70F
FOND DU LAC    LGT RAIN  67  64  90 N6        29.72R
$$

WIZ022-050-052-230500-
EAST CENTRAL WISCONSIN

CITY           SKY/WX    TMP DP  RH WIND       PRES   REMARKS
EPHRAIM        NOT AVBL
WASHINGTON ISL NOT AVBL
STURGEON BAY   FOG       67  67 100 SW5         N/A  VSB 3/4
MANITOWOC      HVY RAIN  66  64  94 NW5       29.73R FOG
SHEBOYGAN      MOCLDY    66  66 100 CALM      29.71S FOG
$$

LMZ563-521-522-541>543-230500-
LAKESHORE

STATION/POSITION TIME  TEMP    WIND        PRES    VSBY  WAVE
                       AIR SEA DIR/SP/G                  HT/PER
                 (UTC) (F)     (DEG/KT/KT) (MB)    (MI)  (FT/S)
SHEBOYGAN LKSHOR 0300   67      CALM  /  1 1005.6R
KEWAUNEE LKSHORE 0330   60     180/  5/  7 1005.4F
NORTHPORT PIER   0340   66     280/  4/  5 1004.4F
N MID LAKE BUOY  0250   58 54  200/  2/  4 1006.1R         2/ 5
CHAMBERS ISLAND  0340   65     260/  2/  3 1004.1F
MENOMINEE LKSHOR 0324          350/  1/  2 1004.2
$$



USA.gov is the U.S. government's official web portal to all federal, state and local government web resources and services.